Location: Centerville
(32.8776°N, 96.6203°W)
Time: 00:55:48
(UTC+00:00)

USA 81 - Pass Details

Date: 17 June 2021
Orbit: 784 x 789 km, 85.0° (Epoch: 12 June)

Event Time Altitude Azimuth Distance (km) Brightness Sun altitude
Rises 03:05:58 0° 3° (N) 3,278 7.9 -16.0°
Reaches altitude 10° 03:08:24 10° 9° (N) 2,346 7.0 -16.4°
Maximum altitude 03:13:30 49° 84° (E) 1,000 4.3 -17.2°
Enters shadow 03:15:44 30° 141° (SE) 1,367 4.7 -17.5°
